This is the latest recevied weather packets stored in our database for station/object NI4CE-10. If no packets are shown the sender has not sent any weather packets the latest 10 day(s).
| Time | Temp. | Humidity | Pressure | Rain* | Wind** | Luminosity | Snow |
|---|---|---|---|---|---|---|---|
| 1788381043 | 30° C | 100% | 1014.7 hPa | 0 mm | - | - | - |
| 1788380874 | 30° C | 100% | 1014.7 hPa | 0 mm | - | - | - |
| 1788380797 | 30° C | 100% | 1014.7 hPa | 0 mm | - | - | - |
| 1788380574 | 30° C | 100% | 1014.7 hPa | 0 mm | - | - | - |
| 1788380433 | 30° C | 100% | 1014.8 hPa | 0 mm | - | - | - |
| 1788380274 | 30° C | 100% | 1014.8 hPa | 0 mm | - | - | - |
| 1788379974 | 30° C | 100% | 1014.9 hPa | 0 mm | - | - | - |
| 1788379674 | 30° C | 100% | 1015 hPa | 0 mm | - | - | - |
| 1788379541 | 30° C | 100% | 1015.1 hPa | 0 mm | - | - | - |
| 1788379374 | 30° C | 100% | 1015.1 hPa | 0 mm | - | - | - |
| 1788379228 | 29.44° C | 100% | 1015.2 hPa | 0 mm | - | - | - |
| 1788379074 | 29.44° C | 100% | 1015.2 hPa | 0 mm | - | - | - |
| 1788378938 | 29.44° C | 100% | 1015.2 hPa | 0 mm | - | - | - |
| 1788378775 | 29.44° C | 100% | 1015.2 hPa | 0 mm | - | - | - |
| 1788378474 | 29.44° C | 100% | 1015.4 hPa | 0 mm | - | - | - |
| 1788378175 | 29.44° C | 100% | 1015.5 hPa | 0 mm | - | - | - |
| 1788378010 | 29.44° C | 100% | 1015.5 hPa | 0 mm | - | - | - |
| 1788377875 | 29.44° C | 100% | 1015.5 hPa | 0 mm | - | - | - |
| 1788377575 | 30° C | 100% | 1015.7 hPa | 0 mm | - | - | - |
| 1788377275 | 31.11° C | 100% | 1015.6 hPa | 0 mm | - | - | - |
| 1788376975 | 31.67° C | 100% | 1015.6 hPa | 0 mm | - | - | - |
| 1788376812 | 32.22° C | 100% | 1015.6 hPa | 0 mm | - | - | - |
| 1788376675 | 32.22° C | 100% | 1015.6 hPa | 0 mm | - | - | - |
| 1788376375 | 32.78° C | 100% | 1015.6 hPa | 0 mm | - | - | - |
| 1788376208 | 32.22° C | 100% | 1015.6 hPa | 0 mm | - | - | - |
* Rain latest hour (hover to see other rain measurements)
** Current wind speed in m/s (hover to see current wind gust speed)